User: anonymous   Login
Location: Unspecified
(0.0000°N, 0.0000°E)
Time: 18:37:01
(UTC+00:00)
Language:

Courier 1B Rocket - Orbit

View from above orbital plane
View from above orbital plane
View from above satellite
View from above satellite

Ground track
Ground track

The orbit data is extracted from the following two-line orbital elements,

1    59U 60013B   17202.63587254 +.00000113 +00000-0 +36608-4 0  9998
2    59 028.2481 272.4269 0189319 014.2185 346.3599 13.52952079802692
Epoch (UTC): 21 July 2017 15:15:39
Eccentricity: 0.0189319
inclination: 28.2481°
perigee height: 920 km
apogee height: 1202 km
right ascension of ascending node: 272.4269°
argument of perigee: 14.2185°
revolutions per day: 13.52952079
mean anomaly at epoch: 346.3599°
orbit number at epoch: 80269

The dashed part of the orbit path shows where the satellite is in the earth's shadow,  

DLR